TimeCEST,TemperatureF,Dew PointF,Humidity,Sea Level PressureIn,VisibilityMPH,Wind Direction,Wind SpeedMPH,Gust SpeedMPH,PrecipitationIn,Events,Conditions,WindDirDegrees,DateUTC
12:00 AM,69.8,57.2,64,30.12,-9999.0,Variable,2.3,-,N/A,,Clear,0,2012-10-07 22:00:00
1:00 AM,69.8,57.2,64,30.12,-9999.0,South,3.5,-,N/A,,Clear,180,2012-10-07 23:00:00
2:00 AM,68.0,57.2,68,30.12,-9999.0,SSE,4.6,-,N/A,,Clear,160,2012-10-08 00:00:00
3:00 AM,68.0,59.0,73,30.12,-9999.0,Variable,2.3,-,N/A,,Clear,0,2012-10-08 01:00:00
4:00 AM,64.4,57.2,77,30.09,-9999.0,Variable,1.2,-,N/A,,Clear,0,2012-10-08 02:00:00
6:00 AM,60.8,57.2,88,30.09,-9999.0,Variable,1.2,-,N/A,,Clear,0,2012-10-08 04:00:00
7:00 AM,62.6,57.2,82,30.09,-9999.0,NE,3.5,-,N/A,,Clear,50,2012-10-08 05:00:00
8:00 AM,60.8,57.2,88,30.12,-9999.0,East,2.3,-,N/A,,Clear,90,2012-10-08 06:00:00
9:00 AM,62.6,57.2,82,30.12,-9999.0,ESE,2.3,-,N/A,,Clear,120,2012-10-08 07:00:00
10:00 AM,69.8,60.8,73,30.12,-9999.0,Calm,Calm,-,N/A,,Clear,0,2012-10-08 08:00:00
11:00 AM,75.2,62.6,65,30.15,-9999.0,Variable,1.2,-,N/A,,Clear,0,2012-10-08 09:00:00
12:00 PM,80.6,62.6,54,30.15,-9999.0,North,3.5,-,N/A,,Clear,360,2012-10-08 10:00:00
1:00 PM,84.2,62.6,48,30.12,-9999.0,Variable,2.3,-,N/A,,Clear,0,2012-10-08 11:00:00
2:00 PM,86.0,62.6,45,30.12,-9999.0,Variable,1.2,-,N/A,,Clear,0,2012-10-08 12:00:00
3:00 PM,89.6,60.8,38,30.09,-9999.0,Variable,1.2,-,N/A,,Clear,0,2012-10-08 13:00:00
4:00 PM,89.6,60.8,38,30.06,-9999.0,Variable,1.2,-,N/A,,Clear,0,2012-10-08 14:00:00
5:00 PM,91.4,60.8,36,30.06,-9999.0,Calm,Calm,-,N/A,,Clear,0,2012-10-08 15:00:00
6:00 PM,91.4,59.0,34,30.06,-9999.0,Calm,Calm,-,N/A,,Clear,0,2012-10-08 16:00:00
7:00 PM,91.4,57.2,31,30.06,-9999.0,Calm,Calm,-,N/A,,Clear,0,2012-10-08 17:00:00
8:00 PM,86.0,59.0,40,30.06,-9999.0,Calm,Calm,-,N/A,,Clear,0,2012-10-08 18:00:00
9:00 PM,78.8,62.6,57,30.06,-9999.0,West,2.3,-,N/A,,Clear,270,2012-10-08 19:00:00
10:00 PM,77.0,62.6,61,30.06,-9999.0,West,5.8,-,N/A,,Clear,270,2012-10-08 20:00:00
11:00 PM,73.4,62.6,69,30.09,-9999.0,South,3.5,-,N/A,,Clear,180,2012-10-08 21:00:00